| time (UTC) | temp F | wind direction | speed MPH | gust MPH | rain 1hr in | rain 24hr in | rain mn in | humidity % | barometer mb |
| 20260510234456 | 57 | 305 | 2.0 | 3.0 | 0.00 | 0.14 | 0.00 | 67 | 1018.9 |
| 20260510232958 | 56 | 300 | 1.0 | 3.0 | 0.00 | 0.14 | 0.00 | 76 | 1018.8 |
| 20260510231456 | 56 | 306 | 2.0 | 3.0 | 0.00 | 0.14 | 0.00 | 77 | 1018.9 |
| 20260510225957 | 55 | 294 | 3.0 | 3.0 | 0.00 | 0.14 | 0.00 | 80 | 1019.1 |
| 20260510224456 | 56 | 326 | 0.0 | 0.0 | 0.00 | 0.14 | 0.00 | 86 | 1018.9 |
| 20260510222955 | 57 | 15 | 0.0 | 1.0 | 0.00 | 0.14 | 0.00 | 81 | 1019.0 |
| 20260510221458 | 57 | 316 | 1.0 | 3.0 | 0.00 | 0.14 | 0.00 | 71 | 1018.9 |
| 20260510215958 | 56 | 300 | 3.0 | 3.0 | 0.00 | 0.14 | 0.00 | 77 | 1019.1 |
| 20260510214456 | 57 | 319 | 0.0 | 0.0 | 0.00 | 0.14 | 0.14 | 70 | 1019.1 |
| 20260510212955 | 58 | 293 | 1.0 | 3.0 | 0.00 | 0.14 | 0.14 | 70 | 1019.1 |
| 20260510211456 | 58 | 297 | 0.0 | 1.0 | 0.00 | 0.14 | 0.14 | 73 | 1018.9 |
| 20260510205956 | 58 | 297 | 0.0 | 2.0 | 0.00 | 0.14 | 0.14 | 76 | 1018.9 |
| 20260510204459 | 58 | 345 | 0.0 | 0.0 | 0.00 | 0.14 | 0.14 | 82 | 1019.1 |
| 20260510202955 | 58 | 286 | 1.0 | 2.0 | 0.00 | 0.14 | 0.14 | 81 | 1019.2 |
| 20260510201455 | 59 | 282 | 0.0 | 3.0 | 0.00 | 0.14 | 0.14 | 80 | 1019.4 |
| 20260510200001 | 59 | 350 | 0.0 | 4.0 | 0.00 | 0.14 | 0.14 | 81 | 1019.2 |
| 20260510194456 | 59 | 301 | 2.0 | 4.0 | 0.00 | 0.14 | 0.14 | 82 | 1019.2 |
| 20260510192958 | 59 | 319 | 3.0 | 5.0 | 0.00 | 0.14 | 0.14 | 81 | 1019.1 |
| 20260510191458 | 59 | 316 | 3.0 | 5.0 | 0.00 | 0.14 | 0.14 | 83 | 1019.1 |
| 20260510185957 | 59 | 273 | 3.0 | 5.0 | 0.00 | 0.14 | 0.14 | 83 | 1019.1 |
| 20260510184458 | 60 | 319 | 3.0 | 5.0 | 0.00 | 0.14 | 0.14 | 81 | 1019.1 |
| 20260510182959 | 61 | 309 | 3.0 | 5.0 | 0.00 | 0.14 | 0.14 | 80 | 1018.9 |
| 20260510181459 | 61 | 297 | 3.0 | 5.0 | 0.00 | 0.14 | 0.14 | 80 | 1018.7 |
| 20260510175955 | 61 | 298 | 3.0 | 5.0 | 0.00 | 0.14 | 0.14 | 84 | 1018.8 |
| 20260510174455 | 62 | 304 | 3.0 | 6.0 | 0.00 | 0.14 | 0.14 | 84 | 1018.8 |
| 20260510172955 | 63 | 307 | 3.0 | 5.0 | 0.00 | 0.14 | 0.14 | 80 | 1018.6 |
| 20260510171458 | 64 | 279 | 4.0 | 5.0 | 0.00 | 0.14 | 0.14 | 70 | 1018.6 |
| 20260510165959 | 66 | 268 | 3.0 | 3.0 | 0.00 | 0.14 | 0.14 | 67 | 1018.6 |
| 20260510164457 | 68 | 170 | 0.0 | 3.0 | 0.00 | 0.14 | 0.14 | 62 | 1018.4 |
| 20260510162958 | 68 | 151 | 1.0 | 4.0 | 0.00 | 0.14 | 0.14 | 64 | 1018.4 |
| 20260510161458 | 68 | 156 | 2.0 | 5.0 | 0.00 | 0.14 | 0.14 | 61 | 1018.5 |
| 20260510155959 | 68 | 220 | 3.0 | 5.0 | 0.00 | 0.14 | 0.14 | 61 | 1018.6 |
| 20260510154500 | 68 | 197 | 3.0 | 4.0 | 0.00 | 0.14 | 0.14 | 63 | 1018.6 |
| 20260510152957 | 68 | 153 | 2.0 | 4.0 | 0.00 | 0.14 | 0.14 | 63 | 1018.8 |
| 20260510151455 | 68 | 119 | 0.0 | 3.0 | 0.00 | 0.14 | 0.14 | 60 | 1018.8 |
| 20260510145958 | 69 | 86 | 3.0 | 6.0 | 0.00 | 0.14 | 0.14 | 59 | 1018.9 |
| 20260510144459 | 68 | 171 | 4.0 | 8.0 | 0.00 | 0.14 | 0.14 | 61 | 1019.0 |
| 20260510142958 | 69 | 163 | 1.0 | 9.0 | 0.00 | 0.14 | 0.14 | 61 | 1019.0 |
| 20260510141456 | 70 | 126 | 5.0 | 10.0 | 0.00 | 0.14 | 0.14 | 62 | 1019.1 |
| 20260510135958 | 69 | 139 | 4.0 | 10.0 | 0.00 | 0.14 | 0.14 | 60 | 1019.4 |
| 20260510134458 | 69 | 146 | 2.0 | 13.0 | 0.00 | 0.14 | 0.14 | 60 | 1019.3 |
| 20260510133000 | 69 | 99 | 6.0 | 11.0 | 0.00 | 0.14 | 0.14 | 61 | 1019.3 |
| 20260510131458 | 69 | 139 | 7.0 | 13.0 | 0.00 | 0.14 | 0.14 | 60 | 1019.5 |
| 20260510125957 | 69 | 127 | 8.0 | 12.0 | 0.00 | 0.14 | 0.14 | 62 | 1019.8 |
| 20260510124458 | 69 | 173 | 6.0 | 14.0 | 0.00 | 0.14 | 0.14 | 64 | 1019.8 |
| 20260510122958 | 69 | 117 | 8.0 | 12.0 | 0.00 | 0.14 | 0.14 | 62 | 1019.7 |
| 20260510121501 | 68 | 167 | 8.0 | 14.0 | 0.00 | 0.14 | 0.14 | 66 | 1019.8 |
| 20260510115958 | 68 | 132 | 7.0 | 11.0 | 0.00 | 0.14 | 0.14 | 67 | 1019.7 |
| 20260510114456 | 67 | 159 | 8.0 | 13.0 | 0.00 | 0.14 | 0.14 | 68 | 1020.1 |
| 20260510112958 | 67 | 112 | 7.0 | 13.0 | 0.00 | 0.14 | 0.14 | 69 | 1020.2 |
| 20260510111459 | 67 | 146 | 7.0 | 13.0 | 0.00 | 0.14 | 0.14 | 71 | 1020.2 |
| 20260510110001 | 66 | 160 | 9.0 | 14.0 | 0.00 | 0.14 | 0.14 | 70 | 1020.2 |
| 20260510104458 | 66 | 176 | 7.0 | 13.0 | 0.00 | 0.14 | 0.14 | 71 | 1020.4 |
| 20260510102958 | 65 | 147 | 9.0 | 14.0 | 0.00 | 0.14 | 0.14 | 73 | 1020.3 |
| 20260510101459 | 65 | 168 | 10.0 | 16.0 | 0.00 | 0.14 | 0.14 | 71 | 1020.3 |
| 20260510095959 | 66 | 142 | 8.0 | 15.0 | 0.00 | 0.14 | 0.14 | 72 | 1020.4 |
| 20260510094502 | 65 | 181 | 9.0 | 13.0 | 0.00 | 0.14 | 0.14 | 72 | 1020.4 |
| 20260510092959 | 65 | 159 | 9.0 | 12.0 | 0.00 | 0.14 | 0.14 | 71 | 1020.3 |
| 20260510091500 | 65 | 158 | 8.0 | 11.0 | 0.00 | 0.14 | 0.14 | 69 | 1020.3 |
| 20260510090000 | 65 | 139 | 6.0 | 10.0 | 0.00 | 0.14 | 0.14 | 71 | 1020.2 |
| 20260510084459 | 65 | 169 | 6.0 | 13.0 | 0.00 | 0.14 | 0.14 | 69 | 1020.0 |
| 20260510082958 | 65 | 141 | 4.0 | 7.0 | 0.00 | 0.14 | 0.14 | 74 | 1019.8 |
| 20260510081459 | 65 | 155 | 4.0 | 6.0 | 0.00 | 0.14 | 0.14 | 72 | 1019.5 |
| 20260510080000 | 64 | 115 | 5.0 | 8.0 | 0.00 | 0.14 | 0.14 | 76 | 1019.4 |
| 20260510074459 | 64 | 178 | 4.0 | 6.0 | 0.00 | 0.14 | 0.14 | 73 | 1019.4 |
| 20260510072959 | 65 | 138 | 2.0 | 8.0 | 0.00 | 0.14 | 0.14 | 71 | 1019.4 |
| 20260510071459 | 64 | 130 | 3.0 | 4.0 | 0.00 | 0.14 | 0.14 | 72 | 1019.2 |
| 20260510065959 | 64 | 74 | 2.0 | 4.0 | 0.00 | 0.14 | 0.14 | 73 | 1019.1 |
| 20260510064459 | 63 | 124 | 2.0 | 4.0 | 0.00 | 0.14 | 0.14 | 73 | 1019.2 |
| 20260510062959 | 61 | 100 | 1.0 | 3.0 | 0.00 | 0.14 | 0.14 | 76 | 1019.2 |
| 20260510061459 | 60 | 149 | 2.0 | 4.0 | 0.00 | 0.14 | 0.14 | 78 | 1018.9 |
| 20260510055958 | 60 | 101 | 1.0 | 7.0 | 0.00 | 0.14 | 0.14 | 80 | 1018.9 |
| 20260510054500 | 60 | 135 | 3.0 | 7.0 | 0.00 | 0.14 | 0.14 | 80 | 1018.9 |
| 20260510053001 | 59 | 64 | 1.0 | 3.0 | 0.00 | 0.14 | 0.14 | 83 | 1018.8 |
| 20260510051459 | 58 | 129 | 2.0 | 6.0 | 0.00 | 0.14 | 0.14 | 82 | 1018.4 |
| 20260510050001 | 56 | 115 | 0.0 | 0.0 | 0.00 | 0.14 | 0.14 | 87 | 1018.3 |
| 20260510044458 | 56 | 86 | 0.0 | 1.0 | 0.00 | 0.14 | 0.14 | 87 | 1018.4 |
| 20260510042959 | 56 | 326 | 0.0 | 2.0 | 0.00 | 0.14 | 0.14 | 86 | 1018.3 |
| 20260510041458 | 57 | 75 | 0.0 | 5.0 | 0.01 | 0.14 | 0.14 | 84 | 1018.2 |
| 20260510035958 | 58 | 124 | 2.0 | 7.0 | 0.01 | 0.14 | 0.14 | 84 | 1018.0 |
| 20260510034458 | 58 | 59 | 3.0 | 7.0 | 0.02 | 0.14 | 0.14 | 84 | 1018.0 |
| 20260510032958 | 58 | 76 | 4.0 | 8.0 | 0.02 | 0.14 | 0.14 | 83 | 1018.0 |
| 20260510031508 | 59 | 52 | 3.0 | 6.0 | 0.01 | 0.13 | 0.13 | 81 | 1018.4 |
| 20260510030002 | 59 | 56 | 3.0 | 9.0 | 0.01 | 0.13 | 0.13 | 79 | 1018.6 |
| 20260510024501 | 59 | 63 | 4.0 | 10.0 | 0.00 | 0.12 | 0.12 | 79 | 1018.8 |
| 20260510023002 | 59 | 46 | 1.0 | 7.0 | 0.00 | 0.12 | 0.12 | 82 | 1019.3 |
| 20260510021507 | 58 | 36 | 2.0 | 3.0 | 0.02 | 0.13 | 0.12 | 85 | 1019.5 |
| 20260510020001 | 59 | 160 | 1.0 | 4.0 | 0.02 | 0.13 | 0.12 | 82 | 1019.5 |
| 20260510014506 | 58 | 342 | 2.0 | 5.0 | 0.07 | 0.13 | 0.12 | 85 | 1019.5 |
| 20260510013001 | 56 | 335 | 2.0 | 4.0 | 0.09 | 0.13 | 0.12 | 91 | 1020.2 |
| 20260510011459 | 55 | 50 | 0.0 | 6.0 | 0.08 | 0.11 | 0.10 | 90 | 1020.4 |
| 20260510005959 | 55 | 44 | 3.0 | 6.0 | 0.10 | 0.11 | 0.10 | 90 | 1020.1 |
| 20260510004503 | 57 | 348 | 3.0 | 5.0 | 0.05 | 0.06 | 0.05 | 87 | 1021.8 |
| 20260510003005 | 58 | 296 | 2.0 | 10.0 | 0.03 | 0.04 | 0.03 | 88 | 1021.6 |
| 20260510001459 | 56 | 276 | 7.0 | 13.0 | 0.02 | 0.03 | 0.02 | 90 | 1022.0 |
| 20260509235959 | 56 | 252 | 8.0 | 20.0 | 0.00 | 0.01 | 0.00 | 89 | 1020.5 |